RYR40JE LPPR-GMTT

Flight info

Callsign RYR40JE
Flight time 1h 12m
Altitude 35000
Route MANIK2W MANIK DCT FTM DCT ESP DCT TROIA DCT VFA DCT ORTOP N726 ABIRO ABIRO2A
Aircraft B738/M-SDE2E3FGHIRWXY/LB1

Departure

Time 2026-05-04 16:24
Airport Francisco de Sá Carneiro Airport (LPPR)

Arrival

Time 2026-05-04 17:36
Airport Tangier Ibn Battuta Airport (GMTT)
Time Latitude Longitude Altitude Speed Heading
2026-05-04 15:55 41.24017 -8.67310 244 ft 0 kts 90°
2026-05-04 16:11 41.24017 -8.67335 244 ft 4 kts 93°
2026-05-04 16:11 41.24020 -8.67371 243 ft 4 kts 101°
2026-05-04 16:12 41.24044 -8.67424 241 ft 2 kts 168°
2026-05-04 16:14 41.24027 -8.67419 241 ft 5 kts 170°
2026-05-04 16:15 41.23921 -8.67481 238 ft 1 kts 209°
2026-05-04 16:16 41.23896 -8.67490 238 ft 2 kts 185°
2026-05-04 16:16 41.23879 -8.67489 238 ft 0 kts 175°
2026-05-04 16:17 41.23807 -8.67471 238 ft 8 kts 169°
2026-05-04 16:18 41.23580 -8.67412 237 ft 14 kts 169°
2026-05-04 16:18 41.23485 -8.67387 238 ft 14 kts 169°
2026-05-04 16:19 41.23322 -8.67506 235 ft 0 kts 258°
2026-05-04 16:20 41.23307 -8.67601 236 ft 0 kts 258°
2026-05-04 16:21 41.23300 -8.67647 239 ft 11 kts 258°
2026-05-04 16:22 41.23344 -8.67742 237 ft 0 kts 347°
2026-05-04 16:23 41.23688 -8.67833 228 ft 85 kts 348°
2026-05-04 16:24 41.27775 -8.68909 2064 ft 178 kts 343°
2026-05-04 16:25 41.30426 -8.69576 2832 ft 214 kts 344°
2026-05-04 16:26 41.37115 -8.71437 4750 ft 267 kts 346°
2026-05-04 16:26 41.41412 -8.75015 7339 ft 258 kts 287°
2026-05-04 16:27 41.40979 -8.79738 8815 ft 267 kts 250°
2026-05-04 16:28 41.38776 -8.86792 10524 ft 295 kts 249°
2026-05-04 16:28 41.35875 -8.94635 11983 ft 330 kts 228°
2026-05-04 16:29 41.26810 -8.96362 14800 ft 365 kts 170°
2026-05-04 16:30 41.19302 -8.93802 16818 ft 377 kts 170°
2026-05-04 16:31 41.14171 -8.92072 18162 ft 384 kts 171°
2026-05-04 16:31 41.06301 -8.89495 19957 ft 393 kts 172°
2026-05-04 16:32 40.98232 -8.86889 21663 ft 402 kts 172°
2026-05-04 16:33 40.92787 -8.85136 22758 ft 408 kts 173°
2026-05-04 16:33 40.87223 -8.83349 23788 ft 415 kts 173°
2026-05-04 16:34 40.81570 -8.81535 24657 ft 420 kts 173°
2026-05-04 16:34 40.78715 -8.80620 25045 ft 423 kts 173°
2026-05-04 16:35 40.70036 -8.77844 26249 ft 432 kts 173°
2026-05-04 16:35 40.61188 -8.75021 27409 ft 440 kts 174°
2026-05-04 16:36 40.58197 -8.74069 27781 ft 442 kts 174°
2026-05-04 16:36 40.52175 -8.72154 28479 ft 447 kts 174°
2026-05-04 16:37 40.46142 -8.70238 29277 ft 450 kts 174°
2026-05-04 16:37 40.43081 -8.69267 29601 ft 453 kts 174°
2026-05-04 16:37 40.36913 -8.67317 30207 ft 458 kts 174°
2026-05-04 16:38 40.30718 -8.65355 31005 ft 455 kts 174°
2026-05-04 16:39 40.21488 -8.62441 32092 ft 454 kts 174°
2026-05-04 16:39 40.15393 -8.60524 32760 ft 453 kts 175°
2026-05-04 16:40 40.09260 -8.58601 33407 ft 453 kts 175°
2026-05-04 16:40 40.03134 -8.56681 34122 ft 451 kts 175°
2026-05-04 16:41 39.97063 -8.54783 34645 ft 452 kts 174°
2026-05-04 16:41 39.87860 -8.51916 35071 ft 457 kts 174°
2026-05-04 16:43 39.72494 -8.47131 35062 ft 450 kts 174°
2026-05-04 16:43 39.63353 -8.44304 35060 ft 450 kts 174°
2026-05-04 16:45 39.45055 -8.38663 35051 ft 452 kts 174°
2026-05-04 16:46 39.29710 -8.33954 35057 ft 454 kts 174°
2026-05-04 16:47 39.17416 -8.30194 35043 ft 453 kts 174°
2026-05-04 16:48 39.05188 -8.26469 35011 ft 452 kts 174°
2026-05-04 16:49 38.92986 -8.22766 35039 ft 449 kts 174°
2026-05-04 16:50 38.80820 -8.19088 35020 ft 448 kts 174°
2026-05-04 16:51 38.71754 -8.16355 35035 ft 448 kts 174°
2026-05-04 16:52 38.60623 -8.13010 34995 ft 449 kts 174°
2026-05-04 16:53 38.51523 -8.10282 35033 ft 449 kts 174°
2026-05-04 16:54 38.39336 -8.06641 35038 ft 450 kts 174°
2026-05-04 16:55 38.21001 -8.01187 35045 ft 454 kts 175°
2026-05-04 16:56 38.05571 -7.96617 35052 ft 458 kts 175°
2026-05-04 16:57 37.96245 -7.93863 35029 ft 458 kts 175°
2026-05-04 16:58 37.83859 -7.90217 35023 ft 456 kts 175°
2026-05-04 17:00 37.65341 -7.84792 35025 ft 453 kts 175°
2026-05-04 17:01 37.50031 -7.80329 35032 ft 452 kts 175°
2026-05-04 17:02 37.37794 -7.76774 35021 ft 450 kts 175°
2026-05-04 17:03 37.28627 -7.74119 35036 ft 449 kts 175°
2026-05-04 17:03 37.19510 -7.71486 35032 ft 450 kts 175°
2026-05-04 17:04 37.07310 -7.67972 35039 ft 449 kts 175°
2026-05-04 17:05 36.95118 -7.64471 35038 ft 449 kts 175°
2026-05-04 17:06 36.86026 -7.61868 35043 ft 448 kts 175°
2026-05-04 17:07 36.80085 -7.60158 34798 ft 430 kts 175°
2026-05-04 17:07 36.78158 -7.59605 34593 ft 426 kts 175°
2026-05-04 17:07 36.74305 -7.58506 34082 ft 422 kts 175°
2026-05-04 17:07 36.71447 -7.57695 33688 ft 419 kts 175°
2026-05-04 17:08 36.68615 -7.56891 33318 ft 416 kts 175°
2026-05-04 17:08 36.63012 -7.55299 32583 ft 410 kts 175°
2026-05-04 17:08 36.60230 -7.54509 32231 ft 407 kts 175°
2026-05-04 17:09 36.57478 -7.53728 31874 ft 405 kts 175°
2026-05-04 17:09 36.54739 -7.52952 31527 ft 402 kts 175°
2026-05-04 17:09 36.52016 -7.52180 31175 ft 400 kts 175°
2026-05-04 17:10 36.46659 -7.50664 30487 ft 395 kts 175°
2026-05-04 17:10 36.38682 -7.48410 29381 ft 387 kts 175°
2026-05-04 17:11 36.36064 -7.47670 29019 ft 384 kts 175°
2026-05-04 17:11 36.33470 -7.46938 28664 ft 381 kts 175°
2026-05-04 17:11 36.28338 -7.45492 27966 ft 375 kts 175°
2026-05-04 17:12 36.25800 -7.44778 27605 ft 372 kts 175°
2026-05-04 17:12 36.20784 -7.43368 26954 ft 367 kts 175°
2026-05-04 17:13 36.13424 -7.41303 25973 ft 360 kts 175°
2026-05-04 17:14 36.06151 -7.39243 24988 ft 357 kts 170°
2026-05-04 17:14 36.03907 -7.37823 24628 ft 372 kts 144°
2026-05-04 17:14 36.01347 -7.32338 24231 ft 377 kts 107°
2026-05-04 17:15 36.00709 -7.29207 23956 ft 377 kts 105°
2026-05-04 17:15 35.99463 -7.22798 23229 ft 392 kts 105°
2026-05-04 17:16 35.98162 -7.16247 22507 ft 392 kts 105°
2026-05-04 17:16 35.96178 -7.06545 21460 ft 385 kts 106°
2026-05-04 17:17 35.95518 -7.03351 21118 ft 383 kts 106°
2026-05-04 17:17 35.93581 -6.94016 20125 ft 377 kts 106°
2026-05-04 17:18 35.92931 -6.90891 19798 ft 375 kts 106°
2026-05-04 17:18 35.91636 -6.84685 19134 ft 372 kts 106°
2026-05-04 17:19 35.90350 -6.78531 18465 ft 369 kts 106°
2026-05-04 17:19 35.89076 -6.72458 17729 ft 366 kts 106°
2026-05-04 17:20 35.87807 -6.66418 17048 ft 361 kts 106°
2026-05-04 17:20 35.86552 -6.60461 16401 ft 356 kts 106°
2026-05-04 17:20 35.85929 -6.57510 16072 ft 354 kts 106°
2026-05-04 17:21 35.84692 -6.51662 15440 ft 350 kts 106°
2026-05-04 17:21 35.83466 -6.45882 14800 ft 347 kts 107°
2026-05-04 17:22 35.82891 -6.43006 14514 ft 345 kts 104°
2026-05-04 17:22 35.82397 -6.40124 14226 ft 343 kts 103°
2026-05-04 17:23 35.80953 -6.31594 13270 ft 337 kts 104°
2026-05-04 17:23 35.80462 -6.28783 12961 ft 335 kts 104°
2026-05-04 17:23 35.79389 -6.23231 12332 ft 330 kts 110°
2026-05-04 17:24 35.78236 -6.20854 11959 ft 320 kts 142°
2026-05-04 17:24 35.72302 -6.19677 11069 ft 299 kts 165°
2026-05-04 17:25 35.70575 -6.18239 10827 ft 308 kts 132°
2026-05-04 17:25 35.69477 -6.13202 10322 ft 311 kts 88°
2026-05-04 17:26 35.70267 -6.07989 9639 ft 312 kts 76°
2026-05-04 17:26 35.71825 -6.00271 8783 ft 307 kts 76°
2026-05-04 17:27 35.72777 -5.95302 8270 ft 303 kts 76°
2026-05-04 17:27 35.72883 -5.90262 7613 ft 300 kts 114°
2026-05-04 17:28 35.71135 -5.85582 6978 ft 300 kts 116°
2026-05-04 17:29 35.68534 -5.78661 6180 ft 293 kts 116°
2026-05-04 17:29 35.66096 -5.72072 5812 ft 273 kts 115°
2026-05-04 17:30 35.64576 -5.65786 5242 ft 255 kts 68°
2026-05-04 17:31 35.67088 -5.63269 4693 ft 233 kts
2026-05-04 17:31 35.70386 -5.66214 3952 ft 207 kts 284°
2026-05-04 17:32 35.71042 -5.69541 3456 ft 193 kts 279°
2026-05-04 17:33 35.71516 -5.74242 2643 ft 173 kts 276°
2026-05-04 17:33 35.71649 -5.75673 2412 ft 163 kts 277°
2026-05-04 17:34 35.72010 -5.79615 1881 ft 152 kts 277°
2026-05-04 17:34 35.72131 -5.80912 1619 ft 153 kts 277°
2026-05-04 17:35 35.72465 -5.84608 1136 ft 143 kts 276°
2026-05-04 17:35 35.72686 -5.87025 765 ft 144 kts 276°
2026-05-04 17:35 35.72808 -5.88246 511 ft 138 kts 280°
2026-05-04 17:36 35.72919 -5.89410 312 ft 140 kts 275°
2026-05-04 17:36 35.73026 -5.90606 132 ft 139 kts 275°
2026-05-04 17:36 35.73133 -5.91740 58 ft 123 kts 275°
2026-05-04 17:36 35.73196 -5.92438 57 ft 34 kts 276°
2026-05-04 17:37 35.73144 -5.92608 57 ft 21 kts 202°
2026-05-04 17:37 35.73032 -5.92553 56 ft 18 kts 115°
2026-05-04 17:37 35.73013 -5.92407 52 ft 16 kts 97°
2026-05-04 17:37 35.72999 -5.92272 51 ft 16 kts 97°
2026-05-04 17:38 35.72985 -5.92142 55 ft 15 kts 97°
2026-05-04 17:38 35.72973 -5.92017 52 ft 14 kts 96°
2026-05-04 17:38 35.72962 -5.91895 58 ft 15 kts 96°
2026-05-04 17:38 35.72944 -5.91756 59 ft 17 kts 120°
2026-05-04 17:39 35.72762 -5.91710 59 ft 16 kts 175°
2026-05-04 17:39 35.72652 -5.91699 59 ft 15 kts 175°
2026-05-04 17:39 35.72547 -5.91690 59 ft 15 kts 174°
2026-05-04 17:40 35.72456 -5.91644 57 ft 14 kts 133°
2026-05-04 17:40 35.72427 -5.91533 55 ft 14 kts 88°
2026-05-04 17:40 35.72433 -5.91414 59 ft 14 kts 86°
2026-05-04 17:40 35.72440 -5.91301 50 ft 13 kts 84°
2026-05-04 17:41 35.72447 -5.91204 59 ft 5 kts 75°
2026-05-04 17:41 35.72479 -5.91188 59 ft 6 kts 358°
2026-05-04 17:41 35.72518 -5.91192 59 ft 6 kts 357°
2026-05-04 17:41 35.72526 -5.91193 59 ft 0 kts 356°
2026-05-04 18:25 35.72515 -5.91192 55 ft 4 kts 353°
2026-05-04 18:25 35.72489 -5.91186 54 ft 4 kts 342°
2026-05-04 18:25 35.72464 -5.91172 52 ft 4 kts 320°
2026-05-04 18:25 35.72450 -5.91149 56 ft 4 kts 271°
2026-05-04 18:26 35.72450 -5.91144 57 ft 2 kts 265°
2026-05-04 18:29 35.72450 -5.91147 57 ft 2 kts 265°
2026-05-04 18:29 35.72447 -5.91203 57 ft 11 kts 266°
2026-05-04 18:29 35.72439 -5.91328 55 ft 18 kts 265°
2026-05-04 18:29 35.72429 -5.91572 59 ft 23 kts 277°
2026-05-04 18:30 35.72642 -5.91698 59 ft 22 kts 355°
2026-05-04 18:30 35.72791 -5.91711 59 ft 21 kts 356°
2026-05-04 18:30 35.72929 -5.91695 55 ft 21 kts 56°
2026-05-04 18:31 35.72928 -5.91527 51 ft 20 kts 96°
2026-05-04 18:31 35.72912 -5.91358 56 ft 20 kts 96°
2026-05-04 18:31 35.72897 -5.91194 54 ft 19 kts 96°
2026-05-04 18:31 35.72881 -5.91030 59 ft 19 kts 97°
2026-05-04 18:32 35.72864 -5.90845 59 ft 27 kts 96°
2026-05-04 18:32 35.72842 -5.90604 51 ft 28 kts 96°
2026-05-04 18:32 35.72820 -5.90370 58 ft 27 kts 97°
2026-05-04 18:32 35.72892 -5.90197 53 ft 25 kts 16°
2026-05-04 18:33 35.72994 -5.90297 57 ft 9 kts 277°
2026-05-04 18:33 35.72994 -5.90304 57 ft 0 kts 276°
2026-05-04 18:34 35.72994 -5.90307 57 ft 5 kts 276°
2026-05-04 18:34 35.73021 -5.90589 58 ft 66 kts 276°
2026-05-04 18:35 35.73098 -5.91413 59 ft 125 kts 277°
2026-05-04 18:35 35.73223 -5.92629 216 ft 158 kts 277°
2026-05-04 18:35 35.73391 -5.93921 969 ft 153 kts 278°
2026-05-04 18:35 35.73538 -5.95310 1470 ft 169 kts 277°
2026-05-04 18:36 35.73676 -5.96747 2190 ft 176 kts 278°
2026-05-04 18:36 35.73844 -5.98338 2510 ft 200 kts 279°
2026-05-04 18:36 35.74033 -6.00136 2746 ft 222 kts 277°
2026-05-04 18:36 35.73790 -6.02013 3380 ft 228 kts 247°
2026-05-04 18:37 35.72793 -6.03636 3862 ft 248 kts 220°
2026-05-04 18:37 35.71236 -6.04529 4727 ft 252 kts 191°
2026-05-04 18:37 35.69512 -6.04356 5522 ft 258 kts 161°
2026-05-04 18:37 35.68142 -6.03038 6510 ft 252 kts 125°
2026-05-04 18:38 35.67583 -6.00979 7162 ft 261 kts 97°
2026-05-04 18:38 35.67378 -5.98735 7807 ft 266 kts 98°
2026-05-04 18:38 35.67165 -5.96461 8482 ft 270 kts 98°
2026-05-04 18:38 35.66731 -5.94216 9112 ft 272 kts 122°
2026-05-04 18:39 35.65511 -5.92503 9776 ft 266 kts 152°
2026-05-04 18:39 35.63795 -5.91598 10044 ft 276 kts 175°
2026-05-04 18:39 35.61822 -5.91428 10245 ft 295 kts 184°
2026-05-04 18:39 35.59714 -5.91450 10415 ft 318 kts 185°
2026-05-04 18:40 35.57431 -5.91508 10580 ft 339 kts 185°
2026-05-04 18:40 35.55005 -5.91562 10891 ft 354 kts 185°
2026-05-04 18:40 35.52521 -5.91600 11475 ft 359 kts 184°
2026-05-04 18:40 35.50010 -5.91625 12159 ft 362 kts 184°
2026-05-04 18:41 35.47485 -5.91645 12819 ft 365 kts 184°
2026-05-04 18:41 35.44925 -5.91665 13450 ft 371 kts 184°
2026-05-04 18:41 35.42330 -5.91685 14091 ft 375 kts 184°
2026-05-04 18:41 35.39716 -5.91705 14753 ft 377 kts 185°
2026-05-04 18:42 35.37085 -5.91757 15462 ft 379 kts 185°
2026-05-04 18:42 35.34433 -5.91833 16163 ft 381 kts 185°
2026-05-04 18:42 35.31777 -5.91917 16847 ft 383 kts 186°
2026-05-04 18:42 35.29101 -5.92000 17524 ft 386 kts 186°
2026-05-04 18:43 35.26441 -5.92081 18184 ft 389 kts 186°
2026-05-04 18:43 35.23723 -5.92162 18768 ft 392 kts 186°
2026-05-04 18:43 35.20981 -5.92241 19308 ft 396 kts 186°
2026-05-04 18:43 35.18217 -5.92320 19855 ft 399 kts 186°
2026-05-04 18:44 35.15427 -5.92399 20391 ft 402 kts 187°
2026-05-04 18:44 35.13530 -5.92452 20748 ft 405 kts 187°
2026-05-04 18:44 35.09784 -5.92557 21404 ft 409 kts 187°
2026-05-04 18:44 35.06925 -5.92637 21923 ft 412 kts 187°
2026-05-04 18:45 35.04051 -5.92717 22418 ft 415 kts 187°
2026-05-04 18:45 35.01151 -5.92798 22902 ft 418 kts 187°
2026-05-04 18:45 34.98259 -5.92879 23373 ft 422 kts 188°
2026-05-04 18:45 34.95312 -5.92962 23801 ft 425 kts 188°
2026-05-04 18:46 34.92395 -5.93302 24171 ft 419 kts 199°
2026-05-04 18:46 34.89663 -5.94407 24574 ft 411 kts 210°
2026-05-04 18:46 34.87184 -5.96083 24998 ft 404 kts 221°
2026-05-04 18:46 34.85002 -5.98209 25404 ft 402 kts 225°
2026-05-04 18:47 34.82840 -6.00399 25752 ft 405 kts 225°
2026-05-04 18:47 34.80664 -6.02601 26107 ft 408 kts 225°
2026-05-04 18:47 34.78474 -6.04803 26490 ft 410 kts 225°
2026-05-04 18:47 34.76265 -6.07008 26883 ft 411 kts 225°
2026-05-04 18:48 34.74050 -6.09209 27246 ft 413 kts 225°
2026-05-04 18:48 34.71842 -6.11394 27538 ft 416 kts 225°
2026-05-04 18:48 34.69587 -6.13622 27864 ft 418 kts 225°
2026-05-04 18:48 34.67325 -6.15855 28221 ft 420 kts 225°
2026-05-04 18:49 34.65055 -6.18093 28627 ft 420 kts 225°
2026-05-04 18:49 34.62793 -6.20320 29144 ft 417 kts 225°
2026-05-04 18:49 34.60546 -6.22531 29708 ft 414 kts 225°
2026-05-04 18:49 34.58317 -6.24726 30215 ft 411 kts 225°
2026-05-04 18:50 34.56098 -6.26910 30533 ft 411 kts 225°
2026-05-04 18:50 34.53865 -6.29108 30760 ft 414 kts 225°
2026-05-04 18:50 34.51583 -6.31265 31120 ft 417 kts 220°
2026-05-04 18:50 34.49104 -6.33029 31600 ft 419 kts 213°
2026-05-04 18:51 34.46417 -6.34429 32079 ft 423 kts 205°
2026-05-04 18:51 34.43598 -6.35442 32497 ft 423 kts 203°
2026-05-04 18:51 34.40761 -6.36408 32862 ft 422 kts 203°
2026-05-04 18:51 34.37929 -6.37369 33061 ft 425 kts 203°
2026-05-04 18:52 34.35074 -6.38347 33055 ft 428 kts 203°
2026-05-04 18:52 34.29365 -6.40323 33025 ft 423 kts 202°
2026-05-04 18:53 34.23719 -6.42293 33051 ft 423 kts 203°
2026-05-04 18:53 34.18065 -6.44269 33065 ft 424 kts 203°
2026-05-04 18:54 34.12394 -6.46248 33057 ft 425 kts 202°
2026-05-04 18:54 34.06698 -6.48230 33064 ft 426 kts 202°
2026-05-04 18:55 34.01004 -6.50219 33052 ft 426 kts 204°
2026-05-04 18:55 33.95816 -6.53358 33066 ft 414 kts 220°
2026-05-04 18:55 33.93584 -6.55494 33053 ft 408 kts 228°
2026-05-04 18:56 33.89533 -6.60290 33065 ft 408 kts 229°
2026-05-04 18:56 33.85487 -6.65094 33057 ft 409 kts 229°
2026-05-04 18:57 33.81409 -6.69890 33062 ft 410 kts 228°
2026-05-04 18:57 33.77347 -6.74642 33053 ft 410 kts 228°
2026-05-04 18:58 33.73255 -6.79422 33060 ft 410 kts 228°
2026-05-04 18:58 33.69161 -6.84201 33071 ft 410 kts 228°
2026-05-04 18:59 33.65063 -6.88974 33075 ft 411 kts 228°
2026-05-04 18:59 33.60954 -6.93749 33075 ft 411 kts 228°
2026-05-04 19:00 33.56834 -6.98528 33075 ft 412 kts 227°
2026-05-04 19:00 33.52800 -7.03202 33074 ft 412 kts 227°
2026-05-04 19:01 33.48704 -7.07942 33080 ft 412 kts 227°
2026-05-04 19:01 33.44584 -7.12703 33070 ft 411 kts 228°
2026-05-04 19:02 33.40470 -7.17452 33078 ft 410 kts 228°
2026-05-04 19:02 33.36361 -7.22189 33072 ft 410 kts 228°
2026-05-04 19:03 33.32255 -7.26916 33083 ft 409 kts 228°
2026-05-04 19:03 33.28182 -7.31598 33077 ft 409 kts 227°
2026-05-04 19:04 33.24087 -7.36299 33077 ft 408 kts 227°
2026-05-04 19:04 33.19994 -7.40993 33077 ft 408 kts 227°
2026-05-04 19:05 33.15899 -7.45683 33079 ft 408 kts 227°
2026-05-04 19:05 33.11745 -7.50315 33070 ft 409 kts 223°
2026-05-04 19:06 33.07056 -7.53856 33060 ft 386 kts 215°
2026-05-04 19:06 33.04766 -7.55431 33060 ft 372 kts 216°
2026-05-04 19:06 33.02562 -7.56957 33050 ft 359 kts 216°
2026-05-04 19:07 33.00441 -7.58436 33047 ft 347 kts 216°
2026-05-04 19:07 32.98403 -7.59863 33054 ft 334 kts 217°
2026-05-04 19:07 32.96458 -7.61228 33040 ft 323 kts 217°
2026-05-04 19:07 32.94547 -7.62573 33067 ft 318 kts 217°
2026-05-04 19:08 32.90647 -7.65326 33078 ft 334 kts 217°
2026-05-04 19:08 32.86572 -7.68182 33066 ft 340 kts 217°
2026-05-04 19:09 32.82500 -7.71041 33058 ft 339 kts 217°
2026-05-04 19:09 32.78465 -7.73890 33053 ft 336 kts 217°
2026-05-04 19:10 32.74474 -7.76707 33051 ft 332 kts 217°
2026-05-04 19:10 32.70510 -7.79502 32079 ft 336 kts 217°
2026-05-04 19:11 32.68447 -7.80962 30745 ft 356 kts 215°
2026-05-04 19:11 32.66248 -7.82509 29195 ft 378 kts 214°
2026-05-04 19:11 32.63929 -7.84126 27810 ft 392 kts 214°
2026-05-04 19:11 32.61566 -7.85762 26900 ft 392 kts 214°
2026-05-04 19:12 32.59257 -7.87356 26219 ft 386 kts 214°
2026-05-04 19:12 32.54680 -7.90519 24883 ft 376 kts 214°
2026-05-04 19:12 32.52398 -7.92099 24186 ft 373 kts 214°
2026-05-04 19:13 32.50192 -7.93627 23491 ft 371 kts 214°
2026-05-04 19:13 32.47973 -7.95165 22730 ft 367 kts 214°
2026-05-04 19:13 32.45784 -7.96681 22026 ft 362 kts 214°
2026-05-04 19:13 32.43615 -7.98182 21337 ft 358 kts 214°
2026-05-04 19:14 32.41474 -7.99663 20654 ft 355 kts 214°
2026-05-04 19:14 32.39405 -8.01093 19994 ft 352 kts 214°
2026-05-04 19:14 32.37304 -8.02545 19342 ft 349 kts 214°
2026-05-04 19:14 32.35213 -8.03990 18676 ft 346 kts 214°
2026-05-04 19:15 32.33144 -8.05418 17991 ft 344 kts 214°
2026-05-04 19:15 32.31087 -8.06838 17290 ft 341 kts 213°
2026-05-04 19:15 32.29078 -8.08223 16628 ft 337 kts 213°
2026-05-04 19:15 32.27068 -8.09607 16140 ft 330 kts 213°
2026-05-04 19:16 32.25111 -8.10954 15731 ft 321 kts 213°
2026-05-04 19:16 32.23208 -8.12264 15342 ft 312 kts 213°
2026-05-04 19:16 32.21349 -8.13545 14984 ft 307 kts 213°
2026-05-04 19:16 32.19520 -8.14805 14634 ft 303 kts 213°
2026-05-04 19:17 32.17688 -8.16066 14293 ft 308 kts 213°
2026-05-04 19:17 32.15787 -8.17375 13912 ft 324 kts 213°
2026-05-04 19:17 32.13732 -8.18504 13447 ft 328 kts 197°
2026-05-04 19:17 32.11476 -8.18657 13062 ft 324 kts 176°
2026-05-04 19:18 32.09330 -8.17935 12707 ft 320 kts 159°
2026-05-04 19:18 32.07353 -8.16792 12359 ft 315 kts 156°
2026-05-04 19:18 32.06066 -8.16006 12129 ft 313 kts 155°
2026-05-04 19:18 32.04144 -8.14821 11785 ft 313 kts 155°
2026-05-04 19:19 32.02174 -8.13613 11452 ft 326 kts 156°
2026-05-04 19:19 31.99454 -8.11961 10960 ft 336 kts 156°
2026-05-04 19:19 31.98048 -8.11111 10696 ft 335 kts 156°
2026-05-04 19:19 31.95996 -8.09874 10531 ft 326 kts 156°
2026-05-04 19:20 31.94002 -8.08675 10375 ft 318 kts 156°
2026-05-04 19:20 31.92059 -8.07510 10227 ft 309 kts 156°
2026-05-04 19:20 31.90173 -8.06382 10096 ft 300 kts 156°
2026-05-04 19:20 31.88334 -8.05282 9987 ft 292 kts 156°
2026-05-04 19:21 31.86558 -8.04222 9642 ft 292 kts 157°
2026-05-04 19:21 31.84750 -8.03145 9354 ft 291 kts 156°
2026-05-04 19:21 31.82947 -8.02071 9041 ft 290 kts 156°
2026-05-04 19:21 31.81151 -8.00998 8737 ft 288 kts 154°
2026-05-04 19:22 31.79590 -7.99545 8480 ft 287 kts 129°
2026-05-04 19:22 31.78380 -7.97691 8233 ft 284 kts 128°
2026-05-04 19:22 31.77190 -7.95845 7950 ft 282 kts 128°
2026-05-04 19:22 31.76004 -7.94010 7673 ft 281 kts 127°
2026-05-04 19:23 31.74823 -7.92190 7385 ft 279 kts 127°
2026-05-04 19:23 31.73661 -7.90403 7124 ft 278 kts 127°
2026-05-04 19:23 31.72472 -7.88580 6846 ft 277 kts 126°
2026-05-04 19:23 31.71319 -7.86813 6575 ft 276 kts 125°
2026-05-04 19:24 31.70149 -7.85023 6273 ft 275 kts 126°
2026-05-04 19:24 31.68987 -7.83249 5977 ft 273 kts 126°
2026-05-04 19:24 31.67832 -7.81489 5736 ft 270 kts 126°